THY3WQ LHBP-LTFM

Flight info

Callsign THY3WQ
Flight time 1h 21m
Altitude 39000
Route VETI2B VETIK LUVEL NOPTI UBOGU BUVAK RIXEN RIXE1M
Aircraft B738/M-VGDW/C

Departure

Time 2026-05-08 05:40
Airport Budapest Liszt Ferenc International Airport (LHBP)

Arrival

Time 2026-05-08 07:01
Airport İstanbul Airport (LTFM)
Time Latitude Longitude Altitude Speed Heading
2026-05-08 05:31 47.43139 19.25921 456 ft 0 kts 43°
2026-05-08 05:33 47.43128 19.25905 453 ft 2 kts 43°
2026-05-08 05:33 47.43115 19.25889 454 ft 2 kts 43°
2026-05-08 05:33 47.43103 19.25872 456 ft 2 kts 42°
2026-05-08 05:33 47.43092 19.25856 454 ft 2 kts 18°
2026-05-08 05:34 47.43079 19.25855 455 ft 2 kts 307°
2026-05-08 05:34 47.43090 19.25840 453 ft 2 kts 317°
2026-05-08 05:34 47.43093 19.25835 454 ft 1 kts 315°
2026-05-08 05:35 47.43094 19.25833 454 ft 1 kts 315°
2026-05-08 05:35 47.43110 19.25809 455 ft 6 kts 312°
2026-05-08 05:36 47.43147 19.25749 456 ft 10 kts 312°
2026-05-08 05:36 47.43206 19.25654 456 ft 14 kts 312°
2026-05-08 05:36 47.43272 19.25548 456 ft 14 kts 312°
2026-05-08 05:36 47.43329 19.25456 456 ft 9 kts 315°
2026-05-08 05:37 47.43386 19.25448 456 ft 9 kts 30°
2026-05-08 05:37 47.43433 19.25507 456 ft 10 kts 41°
2026-05-08 05:37 47.43495 19.25590 456 ft 15 kts 42°
2026-05-08 05:37 47.43583 19.25709 456 ft 20 kts 42°
2026-05-08 05:38 47.43690 19.25852 456 ft 21 kts 42°
2026-05-08 05:38 47.43796 19.25994 455 ft 20 kts 42°
2026-05-08 05:38 47.43895 19.26127 457 ft 20 kts 42°
2026-05-08 05:38 47.43994 19.26261 459 ft 19 kts 42°
2026-05-08 05:39 47.44067 19.26415 469 ft 18 kts 79°
2026-05-08 05:39 47.44031 19.26586 468 ft 20 kts 132°
2026-05-08 05:39 47.43800 19.26958 473 ft 88 kts 132°
2026-05-08 05:39 47.43214 19.27899 463 ft 159 kts 133°
2026-05-08 05:40 47.42396 19.29246 907 ft 185 kts 131°
2026-05-08 05:40 47.41656 19.30816 1931 ft 189 kts 120°
2026-05-08 05:40 47.41021 19.32564 2722 ft 198 kts 120°
2026-05-08 05:40 47.40341 19.34402 3319 ft 210 kts 120°
2026-05-08 05:41 47.39618 19.36325 3830 ft 219 kts 121°
2026-05-08 05:41 47.38840 19.38385 4083 ft 241 kts 119°
2026-05-08 05:41 47.38386 19.40878 4332 ft 268 kts 87°
2026-05-08 05:41 47.38574 19.43666 4959 ft 277 kts 90°
2026-05-08 05:42 47.38489 19.46528 5751 ft 280 kts 95°
2026-05-08 05:42 47.38321 19.49403 6554 ft 283 kts 96°
2026-05-08 05:42 47.38149 19.52321 7283 ft 287 kts 96°
2026-05-08 05:42 47.37991 19.55273 8021 ft 291 kts 95°
2026-05-08 05:43 47.37848 19.58240 8756 ft 295 kts 95°
2026-05-08 05:43 47.37714 19.61283 9489 ft 300 kts 95°
2026-05-08 05:43 47.37586 19.64373 10205 ft 304 kts 94°
2026-05-08 05:43 47.37458 19.67585 10456 ft 326 kts 94°
2026-05-08 05:44 47.37324 19.71032 10643 ft 347 kts 94°
2026-05-08 05:44 47.37186 19.74658 11090 ft 358 kts 94°
2026-05-08 05:44 47.37047 19.78352 11735 ft 363 kts 94°
2026-05-08 05:44 47.36906 19.82087 12443 ft 366 kts 94°
2026-05-08 05:45 47.36764 19.85858 13137 ft 371 kts 94°
2026-05-08 05:45 47.36617 19.89681 13859 ft 375 kts 94°
2026-05-08 05:45 47.36468 19.93553 14515 ft 379 kts 94°
2026-05-08 05:45 47.36316 19.97452 15230 ft 382 kts 94°
2026-05-08 05:46 47.36162 20.01385 15944 ft 385 kts 94°
2026-05-08 05:46 47.36005 20.05338 16637 ft 388 kts 94°
2026-05-08 05:46 47.35846 20.09332 17324 ft 392 kts 94°
2026-05-08 05:46 47.35683 20.13362 17996 ft 396 kts 94°
2026-05-08 05:47 47.35517 20.17431 18613 ft 400 kts 95°
2026-05-08 05:47 47.35068 20.21485 19148 ft 403 kts 108°
2026-05-08 05:47 47.34061 20.25291 19675 ft 405 kts 119°
2026-05-08 05:47 47.32543 20.28784 20205 ft 406 kts 129°
2026-05-08 05:48 47.30819 20.32089 20775 ft 409 kts 131°
2026-05-08 05:48 47.29050 20.35393 21294 ft 412 kts 131°
2026-05-08 05:48 47.27259 20.38725 21835 ft 416 kts 131°
2026-05-08 05:48 47.25456 20.42095 22347 ft 421 kts 131°
2026-05-08 05:49 47.23646 20.45501 22866 ft 424 kts 132°
2026-05-08 05:49 47.21828 20.48941 23372 ft 428 kts 132°
2026-05-08 05:49 47.19988 20.52429 23818 ft 432 kts 132°
2026-05-08 05:49 47.18143 20.55933 24237 ft 435 kts 132°
2026-05-08 05:50 47.16285 20.59459 24699 ft 437 kts 132°
2026-05-08 05:50 47.14418 20.63001 25128 ft 439 kts 132°
2026-05-08 05:50 47.12543 20.66554 25541 ft 442 kts 132°
2026-05-08 05:50 47.10650 20.70132 25938 ft 444 kts 133°
2026-05-08 05:51 47.08769 20.73684 26335 ft 447 kts 133°
2026-05-08 05:51 47.06853 20.77295 26732 ft 449 kts 133°
2026-05-08 05:51 47.04928 20.80922 27124 ft 452 kts 133°
2026-05-08 05:51 47.02991 20.84562 27487 ft 454 kts 133°
2026-05-08 05:52 47.01040 20.88226 27857 ft 457 kts 133°
2026-05-08 05:52 46.99081 20.91901 28223 ft 459 kts 133°
2026-05-08 05:52 46.97108 20.95597 28575 ft 462 kts 133°
2026-05-08 05:52 46.95126 20.99305 28908 ft 464 kts 133°
2026-05-08 05:53 46.93125 21.03042 29221 ft 467 kts 133°
2026-05-08 05:53 46.91114 21.06794 29538 ft 469 kts 133°
2026-05-08 05:53 46.89094 21.10557 29846 ft 472 kts 133°
2026-05-08 05:53 46.87058 21.14346 30136 ft 475 kts 133°
2026-05-08 05:54 46.85007 21.18158 30363 ft 477 kts 133°
2026-05-08 05:54 46.82947 21.21981 30584 ft 480 kts 133°
2026-05-08 05:54 46.80904 21.25771 30808 ft 483 kts 133°
2026-05-08 05:54 46.78822 21.29625 31026 ft 485 kts 133°
2026-05-08 05:55 46.76725 21.33481 31317 ft 485 kts 135°
2026-05-08 05:55 46.74482 21.37125 31661 ft 480 kts 139°
2026-05-08 05:55 46.72139 21.40606 31980 ft 479 kts 141°
2026-05-08 05:55 46.69767 21.44022 32257 ft 480 kts 141°
2026-05-08 05:56 46.67385 21.47433 32540 ft 480 kts 141°
2026-05-08 05:56 46.65013 21.50851 32857 ft 480 kts 141°
2026-05-08 05:56 46.62652 21.54281 33168 ft 480 kts 140°
2026-05-08 05:56 46.60294 21.57727 33442 ft 480 kts 140°
2026-05-08 05:57 46.57943 21.61173 33737 ft 480 kts 140°
2026-05-08 05:57 46.55591 21.64624 34055 ft 480 kts 140°
2026-05-08 05:57 46.53269 21.68027 34320 ft 479 kts 140°
2026-05-08 05:57 46.50928 21.71452 34610 ft 478 kts 140°
2026-05-08 05:58 46.48581 21.74880 34912 ft 476 kts 140°
2026-05-08 05:58 46.46253 21.78274 35205 ft 474 kts 140°
2026-05-08 05:58 46.43922 21.81668 35483 ft 473 kts 140°
2026-05-08 05:58 46.41597 21.85047 35747 ft 472 kts 140°
2026-05-08 05:59 46.39278 21.88413 36015 ft 471 kts 140°
2026-05-08 05:59 46.36966 21.91768 36297 ft 470 kts 140°
2026-05-08 05:59 46.34661 21.95107 36565 ft 468 kts 140°
2026-05-08 05:59 46.32352 21.98446 36815 ft 468 kts 139°
2026-05-08 06:00 46.30145 22.01910 37063 ft 470 kts 134°
2026-05-08 06:00 46.28071 22.05550 37320 ft 469 kts 133°
2026-05-08 06:00 46.26065 22.09201 37566 ft 468 kts 132°
2026-05-08 06:00 46.24056 22.12901 37799 ft 468 kts 132°
2026-05-08 06:01 46.22047 22.16592 38032 ft 467 kts 132°
2026-05-08 06:01 46.20031 22.20268 38267 ft 466 kts 133°
2026-05-08 06:01 46.18017 22.23911 38519 ft 464 kts 133°
2026-05-08 06:01 46.15997 22.27543 38721 ft 463 kts 133°
2026-05-08 06:02 46.13967 22.31177 38864 ft 463 kts 133°
2026-05-08 06:02 46.11942 22.34788 38974 ft 463 kts 133°
2026-05-08 06:02 46.09916 22.38397 39030 ft 462 kts 133°
2026-05-08 06:03 46.05895 22.45546 39059 ft 464 kts 133°
2026-05-08 06:03 46.01810 22.52788 39070 ft 468 kts 133°
2026-05-08 06:04 45.97692 22.60076 39064 ft 470 kts 133°
2026-05-08 06:04 45.93559 22.67373 39057 ft 472 kts 133°
2026-05-08 06:05 45.89411 22.74678 39060 ft 471 kts 133°
2026-05-08 06:05 45.85267 22.81957 39063 ft 470 kts 133°
2026-05-08 06:06 45.81124 22.89214 39058 ft 469 kts 133°
2026-05-08 06:06 45.76996 22.96427 39066 ft 466 kts 133°
2026-05-08 06:07 45.72919 23.03533 39060 ft 464 kts 133°
2026-05-08 06:07 45.68822 23.10653 39063 ft 462 kts 133°
2026-05-08 06:08 45.64738 23.17731 39058 ft 460 kts 133°
2026-05-08 06:08 45.60663 23.24778 39073 ft 459 kts 133°
2026-05-08 06:09 45.56590 23.31803 39073 ft 459 kts 133°
2026-05-08 06:09 45.52509 23.38824 39073 ft 461 kts 133°
2026-05-08 06:10 45.48437 23.45812 39077 ft 461 kts 133°
2026-05-08 06:10 45.44333 23.52839 39077 ft 461 kts 133°
2026-05-08 06:11 45.40224 23.59857 39079 ft 463 kts 133°
2026-05-08 06:11 45.36086 23.66906 39074 ft 464 kts 133°
2026-05-08 06:12 45.31935 23.73960 39080 ft 465 kts 133°
2026-05-08 06:12 45.27768 23.81021 39083 ft 467 kts 133°
2026-05-08 06:13 45.23591 23.88085 39082 ft 467 kts 133°
2026-05-08 06:13 45.19443 23.95082 39072 ft 467 kts 134°
2026-05-08 06:14 45.15260 24.02120 39074 ft 466 kts 134°
2026-05-08 06:14 45.11084 24.09128 39070 ft 465 kts 134°
2026-05-08 06:15 45.07614 24.14938 39069 ft 464 kts 134°
2026-05-08 06:15 45.02749 24.23063 39059 ft 463 kts 134°
2026-05-08 06:16 44.99293 24.28822 39067 ft 461 kts 134°
2026-05-08 06:16 44.94458 24.36858 39071 ft 461 kts 134°
2026-05-08 06:17 44.88896 24.46074 39068 ft 461 kts 134°
2026-05-08 06:17 44.84755 24.52916 39066 ft 462 kts 134°
2026-05-08 06:18 44.80581 24.59798 39068 ft 463 kts 134°
2026-05-08 06:18 44.76389 24.66693 39066 ft 464 kts 134°
2026-05-08 06:19 44.72176 24.73595 39062 ft 466 kts 134°
2026-05-08 06:19 44.67945 24.80506 39064 ft 467 kts 134°
2026-05-08 06:20 44.63700 24.87427 39061 ft 468 kts 134°
2026-05-08 06:20 44.59440 24.94359 39061 ft 470 kts 134°
2026-05-08 06:21 44.55166 25.01297 39062 ft 470 kts 134°
2026-05-08 06:21 44.50871 25.08252 39060 ft 471 kts 134°
2026-05-08 06:22 44.46580 25.15183 39059 ft 471 kts 134°
2026-05-08 06:22 44.42305 25.22070 39061 ft 471 kts 134°
2026-05-08 06:23 44.38010 25.28974 39061 ft 470 kts 134°
2026-05-08 06:23 44.33704 25.35878 39058 ft 470 kts 134°
2026-05-08 06:24 44.29411 25.42745 39056 ft 469 kts 134°
2026-05-08 06:24 44.25110 25.49607 39050 ft 469 kts 134°
2026-05-08 06:25 44.20842 25.56402 39053 ft 468 kts 134°
2026-05-08 06:25 44.16547 25.63223 39057 ft 468 kts 134°
2026-05-08 06:26 44.12241 25.70043 39068 ft 468 kts 134°
2026-05-08 06:26 44.07931 25.76855 39049 ft 469 kts 134°
2026-05-08 06:27 44.03607 25.83672 39052 ft 470 kts 134°
2026-05-08 06:27 43.99306 25.90436 39059 ft 470 kts 134°
2026-05-08 06:28 43.94963 25.97251 39049 ft 471 kts 134°
2026-05-08 06:28 43.90608 26.04069 39054 ft 472 kts 134°
2026-05-08 06:29 43.86249 26.10875 39055 ft 473 kts 134°
2026-05-08 06:29 43.81878 26.17685 39053 ft 473 kts 135°
2026-05-08 06:30 43.77491 26.24503 39063 ft 474 kts 135°
2026-05-08 06:30 43.73102 26.31308 39064 ft 474 kts 135°
2026-05-08 06:31 43.68707 26.38107 39067 ft 474 kts 135°
2026-05-08 06:31 43.64305 26.44900 39064 ft 474 kts 135°
2026-05-08 06:32 43.59935 26.51627 39067 ft 474 kts 135°
2026-05-08 06:32 43.55527 26.58398 39067 ft 474 kts 135°
2026-05-08 06:33 43.51123 26.65145 39072 ft 473 kts 135°
2026-05-08 06:33 43.46713 26.71886 39074 ft 473 kts 135°
2026-05-08 06:34 43.42310 26.78601 39078 ft 472 kts 135°
2026-05-08 06:34 43.37903 26.85305 39078 ft 473 kts 135°
2026-05-08 06:35 43.33486 26.92009 39083 ft 473 kts 135°
2026-05-08 06:35 43.29092 26.98663 39082 ft 473 kts 135°
2026-05-08 06:36 43.24658 27.05363 39092 ft 474 kts 135°
2026-05-08 06:36 43.20214 27.12062 39094 ft 475 kts 135°
2026-05-08 06:37 43.15761 27.18758 39087 ft 476 kts 135°
2026-05-08 06:37 43.11289 27.25468 39095 ft 477 kts 135°
2026-05-08 06:38 43.06804 27.32183 39098 ft 478 kts 135°
2026-05-08 06:38 43.02347 27.38842 39096 ft 478 kts 135°
2026-05-08 06:39 42.97843 27.45555 39100 ft 479 kts 135°
2026-05-08 06:39 42.93333 27.52285 38970 ft 483 kts 135°
2026-05-08 06:40 42.91049 27.55689 38413 ft 488 kts 135°
2026-05-08 06:40 42.88765 27.59093 37826 ft 485 kts 135°
2026-05-08 06:40 42.86492 27.62478 37250 ft 483 kts 135°
2026-05-08 06:40 42.84225 27.65851 36662 ft 482 kts 135°
2026-05-08 06:41 42.81958 27.69217 36087 ft 481 kts 134°
2026-05-08 06:41 42.79691 27.72579 35464 ft 482 kts 134°
2026-05-08 06:41 42.77418 27.75945 34847 ft 483 kts 134°
2026-05-08 06:41 42.75166 27.79278 34583 ft 473 kts 134°
2026-05-08 06:42 42.72970 27.82524 34199 ft 475 kts 134°
2026-05-08 06:42 42.70676 27.85908 33713 ft 485 kts 134°
2026-05-08 06:42 42.68399 27.89262 33248 ft 491 kts 134°
2026-05-08 06:42 42.66079 27.92678 32762 ft 490 kts 134°
2026-05-08 06:43 42.63773 27.96071 32296 ft 488 kts 134°
2026-05-08 06:43 42.61471 27.99454 31834 ft 486 kts 134°
2026-05-08 06:43 42.59175 28.02825 31382 ft 484 kts 134°
2026-05-08 06:43 42.56894 28.06169 30941 ft 482 kts 134°
2026-05-08 06:44 42.54623 28.09493 30505 ft 479 kts 134°
2026-05-08 06:44 42.52365 28.12796 30060 ft 475 kts 134°
2026-05-08 06:44 42.50123 28.16071 29548 ft 471 kts 134°
2026-05-08 06:44 42.47910 28.19302 29048 ft 464 kts 134°
2026-05-08 06:45 42.45726 28.22484 28557 ft 457 kts 134°
2026-05-08 06:45 42.43570 28.25624 28080 ft 451 kts 134°
2026-05-08 06:45 42.41472 28.28675 27607 ft 445 kts 134°
2026-05-08 06:45 42.39370 28.31729 27146 ft 440 kts 134°
2026-05-08 06:46 42.37291 28.34746 26700 ft 435 kts 134°
2026-05-08 06:46 42.35241 28.37717 26240 ft 430 kts 134°
2026-05-08 06:46 42.33211 28.40658 25827 ft 425 kts 134°
2026-05-08 06:46 42.31202 28.43565 25415 ft 421 kts 134°
2026-05-08 06:47 42.29216 28.46434 25014 ft 416 kts 134°
2026-05-08 06:47 42.27249 28.49275 24610 ft 412 kts 134°
2026-05-08 06:47 42.25298 28.52090 24213 ft 407 kts 134°
2026-05-08 06:47 42.23370 28.54868 23828 ft 404 kts 134°
2026-05-08 06:48 42.21462 28.57616 23398 ft 400 kts 134°
2026-05-08 06:48 42.19569 28.60339 22912 ft 394 kts 134°
2026-05-08 06:48 42.17714 28.63006 22367 ft 385 kts 134°
2026-05-08 06:48 42.15900 28.65610 21780 ft 378 kts 134°
2026-05-08 06:49 42.14109 28.68180 21141 ft 374 kts 134°
2026-05-08 06:49 42.12337 28.70720 20527 ft 370 kts 134°
2026-05-08 06:49 42.10602 28.73205 19918 ft 366 kts 134°
2026-05-08 06:49 42.08787 28.75579 19308 ft 361 kts 146°
2026-05-08 06:50 42.06579 28.77089 18723 ft 354 kts 166°
2026-05-08 06:50 42.04193 28.77819 18132 ft 349 kts 171°
2026-05-08 06:50 42.01815 28.78414 17475 ft 346 kts 172°
2026-05-08 06:50 41.99452 28.78986 16834 ft 343 kts 172°
2026-05-08 06:51 41.97105 28.79564 16202 ft 341 kts 171°
2026-05-08 06:51 41.94777 28.80152 15588 ft 339 kts 171°
2026-05-08 06:51 41.92495 28.80738 14989 ft 336 kts 171°
2026-05-08 06:51 41.90204 28.81333 14420 ft 333 kts 171°
2026-05-08 06:52 41.87938 28.81920 13902 ft 328 kts 173°
2026-05-08 06:52 41.85694 28.81955 13313 ft 321 kts 189°
2026-05-08 06:52 41.83493 28.81555 12757 ft 316 kts 190°
2026-05-08 06:52 41.81329 28.81136 12202 ft 313 kts 190°
2026-05-08 06:53 41.79187 28.80725 11638 ft 310 kts 190°
2026-05-08 06:53 41.77063 28.80326 11107 ft 306 kts 189°
2026-05-08 06:53 41.74956 28.79939 10572 ft 303 kts 189°
2026-05-08 06:53 41.72913 28.79569 10331 ft 291 kts 189°
2026-05-08 06:54 41.70953 28.79219 10001 ft 283 kts 189°
2026-05-08 06:54 41.69011 28.78873 9508 ft 280 kts 189°
2026-05-08 06:54 41.67079 28.78529 9020 ft 278 kts 189°
2026-05-08 06:54 41.65172 28.78190 8542 ft 276 kts 189°
2026-05-08 06:55 41.63272 28.77853 7984 ft 275 kts 189°
2026-05-08 06:55 41.61389 28.77523 7614 ft 269 kts 189°
2026-05-08 06:55 41.59517 28.77183 7046 ft 271 kts 190°
2026-05-08 06:55 41.57676 28.76849 6590 ft 270 kts 190°
2026-05-08 06:56 41.55832 28.76505 6156 ft 266 kts 189°
2026-05-08 06:56 41.54011 28.76196 5730 ft 262 kts 189°
2026-05-08 06:56 41.52217 28.75894 5280 ft 259 kts 189°
2026-05-08 06:56 41.50430 28.75587 4795 ft 259 kts 189°
2026-05-08 06:57 41.48650 28.75274 4293 ft 258 kts 187°
2026-05-08 06:57 41.46856 28.75234 3804 ft 258 kts 180°
2026-05-08 06:57 41.45053 28.75309 3369 ft 256 kts 181°
2026-05-08 06:57 41.43286 28.75353 3027 ft 250 kts 182°
2026-05-08 06:58 41.41600 28.75383 2732 ft 240 kts 182°
2026-05-08 06:58 41.39986 28.75413 2391 ft 222 kts 182°
2026-05-08 06:58 41.38520 28.75442 2114 ft 199 kts 182°
2026-05-08 06:58 41.37200 28.75467 1863 ft 181 kts 183°
2026-05-08 06:59 41.36000 28.75489 1631 ft 164 kts 183°
2026-05-08 06:59 41.34915 28.75509 1460 ft 146 kts 183°
2026-05-08 06:59 41.33937 28.75527 1244 ft 137 kts 183°
2026-05-08 06:59 41.32988 28.75543 1075 ft 139 kts 182°
2026-05-08 07:00 41.32015 28.75563 925 ft 141 kts 181°
2026-05-08 07:00 41.31033 28.75582 718 ft 138 kts 181°
2026-05-08 07:00 41.30084 28.75598 512 ft 134 kts 182°
2026-05-08 07:00 41.29158 28.75624 304 ft 135 kts 181°
2026-05-08 07:01 41.28252 28.75637 259 ft 117 kts 180°
2026-05-08 07:01 41.27584 28.75650 285 ft 75 kts 180°
2026-05-08 07:01 41.27223 28.75640 299 ft 40 kts 193°
2026-05-08 07:01 41.27017 28.75517 306 ft 24 kts 210°
2026-05-08 07:02 41.26908 28.75426 308 ft 15 kts 231°
2026-05-08 07:02 41.26891 28.75311 307 ft 12 kts 271°
2026-05-08 07:02 41.26889 28.75198 308 ft 12 kts 268°
2026-05-08 07:02 41.26857 28.75147 312 ft 7 kts 190°
2026-05-08 07:03 41.26808 28.75147 312 ft 7 kts 178°
2026-05-08 07:03 41.26760 28.75143 312 ft 7 kts 195°
2026-05-08 07:03 41.26738 28.75086 312 ft 8 kts 266°
2026-05-08 07:03 41.26738 28.75029 312 ft 3 kts 269°
2026-05-08 07:04 41.26737 28.75023 312 ft 0 kts 269°